Theta_e
289 289 289 290 290 291 291 292 292 293 293 294 294 294 295 297 299 300 301 301 302 302 302 303 306 310 313 317 322 324 325 325 326 326 326 324 325 325 326 326 326 326 326 325 326 325 324 324 324 324 324 323 323 323 323 323 323 322 320 318 318 318 317 315 312 311 311 312 314 315 319 319 318 318 317 318 315 315 315 319 316 315 315 316 312
289 289 289 289 289 290 291 291 291 292 292 293 293 293 294 295 297 297 297 299 300 300 300 302 304 306 308 312 316 321 324 325 325 325 323 323 324 325 325 326 325 325 325 324 324 325 325 324 324 324 324 323 323 322 322 322 322 321 321 320 320 319 320 317 315 312 310 311 312 314 314 319 318 317 317 317 316 314 316 317 318 317 318 316 310
288 289 288 288 288 289 290 290 290 290 291 292 292 292 293 294 295 294 295 296 298 298 299 301 302 303 305 307 310 314 320 323 324 324 323 323 323 324 324 324 324 324 324 324 324 324 324 323 323 323 324 323 322 323 323 322 322 321 321 321 320 320 320 320 317 314 312 311 313 313 312 313 316 317 317 318 318 318 317 317 318 319 319 318 313
287 288 288 288 288 288 289 289 289 289 289 290 290 291 292 293 293 293 294 294 294 295 297 300 301 301 303 304 305 308 311 315 321 324 324 324 323 323 323 323 324 324 324 324 324 324 323 323 323 323 323 322 322 322 322 322 321 321 321 321 320 320 320 320 319 317 315 313 312 314 314 311 310 313 319 318 318 318 318 318 318 318 318 316 311
286 287 287 287 287 288 288 288 288 288 289 289 289 290 291 291 292 292 293 292 293 293 295 297 299 300 301 301 302 304 306 309 312 316 322 323 323 323 323 323 323 323 324 324 316 323 323 322 323 323 322 321 321 321 321 321 321 321 320 321 320 320 320 320 319 318 316 314 312 313 313 313 309 311 316 314 313 314 312 315 316 317 315 312 309
285 286 286 286 286 287 287 288 288 288 288 288 289 290 290 290 290 291 291 291 291 293 294 295 296 297 299 300 301 302 304 306 308 311 315 320 323 323 323 323 323 323 323 323 323 323 323 323 323 323 322 321 321 321 321 320 321 320 320 320 320 319 318 318 318 317 317 316 314 311 311 312 309 306 310 313 311 308 304 307 311 315 311 306 305
284 284 285 285 286 286 286 287 287 288 288 288 289 289 289 289 289 290 290 290 290 291 292 293 294 295 296 298 300 301 303 304 306 308 311 315 319 321 322 322 323 323 323 322 322 323 323 323 322 323 322 321 320 320 320 320 320 320 319 319 319 318 317 317 316 316 316 315 314 315 311 308 312 310 308 309 311 309 309 303 304 311 307 307 303
283 283 283 284 284 285 285 285 286 287 288 288 288 288 289 288 289 289 288 288 289 290 290 291 292 293 294 296 298 299 300 302 304 306 309 313 315 318 320 320 321 322 322 322 322 322 323 323 323 323 322 322 321 321 320 319 320 319 320 320 318 317 317 316 315 315 315 314 314 312 313 310 305 306 302 303 305 303 304 306 308 306 305 302 306
282 282 282 282 284 285 285 285 286 286 287 287 288 288 288 288 288 288 287 287 289 289 289 290 290 290 292 293 295 296 298 300 303 304 305 305 307 309 313 319 320 320 321 321 322 322 322 322 322 323 321 311 308 310 312 312 320 318 319 319 317 317 316 315 315 314 314 313 313 313 311 309 310 308 307 309 309 309 303 300 305 306 303 301 301
281 282 282 282 283 284 284 284 285 285 286 286 287 286 287 287 287 287 287 287 287 287 288 289 289 289 290 291 292 294 296 299 296 295 296 299 301 303 305 308 314 318 318 319 320 321 321 322 320 308 306 304 303 302 304 304 306 315 320 319 318 317 316 315 314 313 314 312 312 312 311 310 309 309 309 308 302 302 304 302 303 298 302 301 299
281 281 282 282 282 283 283 283 284 284 285 285 285 286 286 286 286 286 286 286 286 287 287 287 288 288 289 290 290 292 294 295 294 296 296 297 298 301 303 305 307 311 316 317 317 316 319 320 322 312 305 302 304 301 302 302 302 303 305 308 310 318 317 315 314 313 312 312 312 312 311 311 311 310 309 307 306 307 306 305 305 303 303 300 298
281 281 281 282 282 283 283 283 283 283 284 284 285 285 285 285 285 285 285 286 286 286 286 286 287 288 288 288 289 290 291 292 294 295 296 297 296 299 301 302 304 307 310 314 316 316 317 318 319 320 318 315 316 312 304 300 301 302 302 303 304 306 309 315 315 313 313 313 312 311 311 311 311 309 307 306 307 307 305 304 305 304 303 302 300
280 281 281 281 282 282 282 282 282 282 283 284 284 284 284 284 284 284 284 285 286 286 286 286 286 287 287 287 287 289 290 291 293 294 295 296 296 296 299 301 302 303 306 309 312 315 315 315 317 319 321 303 305 315 315 311 300 299 301 300 301 303 305 305 307 315 316 314 313 311 311 311 309 308 308 307 307 306 305 305 305 305 305 304 302
280 280 281 281 282 282 282 282 282 282 283 283 284 284 283 283 283 284 284 285 285 285 285 286 286 286 286 286 287 288 289 290 292 293 293 294 295 296 298 300 301 302 303 305 308 311 314 315 314 315 317 315 313 314 315 314 313 308 306 308 311 305 301 303 302 302 308 315 314 312 312 312 311 310 306 307 307 307 305 305 305 304 303 303 298
280 280 280 281 281 281 281 281 281 282 282 282 283 282 283 283 283 283 283 283 284 284 284 285 285 286 286 286 286 287 288 289 291 291 292 294 295 295 297 298 300 301 302 303 305 308 310 313 315 315 315 315 314 311 313 313 313 311 309 309 311 312 310 310 311 311 310 314 315 313 311 310 310 306 307 309 310 308 307 304 303 303 295 290 290
280 280 280 280 281 281 281 281 281 282 282 282 282 281 282 282 282 282 282 282 283 284 284 284 284 285 285 286 286 286 287 289 290 290 291 292 293 293 295 296 297 298 300 301 303 305 307 309 311 313 314 315 306 302 305 311 312 310 309 309 310 310 309 305 306 308 310 311 311 310 308 308 305 307 306 308 308 302 296 295 296 293 294 294 293
279 280 280 280 280 281 281 281 281 281 282 281 281 281 281 281 281 282 281 282 282 282 282 283 284 284 284 285 285 285 286 288 289 289 290 291 291 292 293 294 295 296 297 299 301 303 304 306 308 310 312 313 305 302 301 303 310 310 309 309 308 307 305 297 294 299 302 302 303 302 301 302 303 303 303 304 303 300 298 298 296 295 295 294 290
280 280 280 280 280 281 281 281 281 281 281 280 280 280 280 281 280 281 281 281 281 281 281 282 282 283 283 284 285 285 285 287 288 289 289 290 291 291 293 293 293 294 295 297 299 301 302 296 298 306 309 310 304 301 301 302 309 309 309 308 306 304 303 294 293 292 293 296 297 297 297 299 300 301 302 302 300 299 300 300 296 296 296 295 292
280 280 280 280 280 281 281 281 280 280 280 280 280 279 279 280 280 281 281 280 280 281 281 280 281 282 283 283 284 284 285 286 287 288 289 290 290 291 292 292 292 293 294 295 297 299 301 298 295 298 303 305 303 300 300 301 308 310 309 308 305 303 303 294 294 292 291 292 291 293 292 292 295 297 296 297 296 297 305 303 297 297 296 295 292
280 280 280 280 280 280 280 280 280 280 279 279 279 279 279 280 280 280 280 280 279 279 280 280 280 281 282 282 283 284 284 285 286 288 289 290 290 290 291 291 291 292 293 294 294 297 299 301 299 298 298 299 301 300 299 299 307 309 309 307 305 304 303 294 293 295 293 294 293 293 293 291 292 292 293 294 295 293 297 300 299 298 296 294 291
280 280 280 280 280 280 280 280 279 279 279 278 278 279 279 279 279 279 279 279 278 279 279 279 280 280 281 282 283 284 285 285 286 288 289 290 290 290 291 291 292 292 292 292 293 295 297 299 300 297 297 297 298 299 298 298 300 307 308 307 307 304 295 292 290 290 293 291 290 290 289 289 291 291 292 292 292 291 291 295 297 299 298 294 293
280 280 279 279 279 279 279 279 279 278 278 278 278 278 278 279 278 278 278 278 277 278 278 279 279 280 281 282 282 283 284 285 285 286 288 289 290 290 290 290 291 291 291 291 292 294 296 298 299 296 295 295 296 297 297 298 297 299 306 303 302 295 294 293 291 291 291 290 290 289 288 289 289 289 290 290 290 289 290 290 290 287 287 292 295
279 279 279 278 278 278 278 277 277 277 277 277 277 276 276 276 276 277 277 277 277 277 277 278 278 279 280 281 282 282 283 284 285 285 287 288 290 290 291 291 291 291 291 290 291 292 295 296 296 292 292 293 294 296 296 297 296 299 300 300 295 293 292 291 290 291 290 290 289 289 289 289 288 288 288 288 288 288 287 287 286 285 285 285 286
278 278 277 277 277 276 276 276 276 276 276 276 275 274 274 275 275 276 277 277 277 276 277 278 278 278 279 280 281 282 282 283 284 285 286 287 289 290 291 291 291 291 291 291 291 292 293 294 293 292 291 292 293 294 295 294 295 297 297 295 292 290 291 290 290 291 290 289 289 289 289 289 289 288 288 287 287 287 286 285 284 284 283 283 285
276 276 275 275 275 275 275 275 275 275 274 274 273 273 273 274 274 275 276 276 276 276 277 277 277 278 279 279 280 281 282 282 283 284 285 285 287 288 289 290 291 291 290 290 290 291 290 290 291 290 290 291 292 292 292 292 293 293 293 291 289 291 290 291 291 290 289 289 290 290 289 288 289 289 288 287 286 285 283 281 281 281 281 281 281
274 274 274 274 274 274 273 273 273 273 273 273 273 273 273 274 274 274 275 275 276 276 276 277 278 278 278 279 279 280 281 281 282 282 283 283 284 285 286 287 288 288 288 289 288 288 289 289 289 289 288 289 289 290 290 291 290 290 290 289 291 291 290 291 290 290 290 290 290 289 289 288 287 287 286 286 285 284 283 282 281 280 282 283 281
273 273 272 272 273 273 272 271 271 271 271 272 272 273 274 274 274 274 275 275 275 276 276 277 277 278 278 278 279 279 280 280 280 281 281 282 282 283 285 287 287 287 287 287 287 288 288 288 289 288 288 288 288 288 289 289 289 290 290 290 291 291 290 291 291 291 290 290 289 289 288 287 286 285 285 285 284 284 284 282 282 281 282 282 281
271 271 271 271 271 271 270 271 271 270 270 271 271 272 273 273 273 274 274 275 275 275 276 277 277 277 277 277 277 277 277 278 279 279 280 281 281 282 284 284 284 284 285 286 288 288 288 288 288 288 287 287 288 288 288 288 288 289 290 290 290 290 289 289 289 290 290 290 289 288 286 285 285 285 285 284 284 283 283 283 282 281 281 281 280
270 269 269 269 269 269 269 269 269 269 270 270 272 273 273 273 274 275 277 278 278 277 275 275 275 275 275 275 275 275 276 276 277 281 281 283 282 281 281 281 281 281 283 284 284 285 287 287 287 287 287 286 287 287 287 287 288 289 288 289 289 289 289 289 289 289 289 289 287 286 285 285 285 285 284 284 283 283 283 282 282 281 280 280 280
268 268 268 268 268 268 268 268 269 269 270 270 271 273 276 277 277 274 273 275 277 278 278 275 275 275 275 276 277 276 275 277 281 281 282 282 283 283 283 284 284 283 284 285 284 284 284 285 286 286 286 286 286 286 286 287 287 287 288 287 288 288 288 289 289 289 289 288 288 286 285 285 284 284 284 283 282 282 283 282 281 281 280 279 277
267 267 267 266 267 268 268 268 268 269 269 270 271 270 270 271 274 276 275 274 275 276 277 278 279 279 278 276 277 280 280 281 281 282 282 282 283 283 283 283 284 284 285 284 283 283 284 285 286 286 287 287 287 287 287 287 287 287 287 287 288 287 287 288 288 288 287 287 287 286 285 285 284 284 283 283 282 282 282 281 281 280 280 279 277
265 265 266 266 267 267 267 267 268 268 269 270 269 268 268 267 268 272 274 275 276 277 277 278 278 279 279 278 277 276 279 280 281 281 281 282 282 283 283 283 284 284 285 285 283 283 284 285 285 286 286 286 286 287 287 287 287 287 287 286 286 287 287 287 288 288 288 287 286 285 285 285 284 284 283 282 281 281 281 280 280 279 279 279 278
264 265 265 266 266 267 267 267 268 268 268 268 267 267 266 266 266 267 270 274 275 275 276 277 277 277 278 278 279 279 279 280 280 281 281 281 282 282 283 283 284 285 285 283 282 283 284 285 285 286 286 286 287 287 287 287 287 287 287 286 286 286 287 287 287 288 288 287 287 285 285 285 284 283 282 281 281 280 280 280 280 280 279 278 276
265 265 265 266 266 266 267 267 267 267 267 266 266 266 266 267 267 268 268 268 270 272 274 274 274 275 276 277 278 278 279 279 280 280 280 281 282 283 283 282 284 285 284 282 283 283 284 285 285 286 287 287 287 287 287 286 286 287 286 286 286 286 286 287 287 287 287 287 286 285 285 284 283 282 281 281 281 280 280 279 280 279 278 277 276
264 265 266 266 265 265 266 266 266 266 266 265 265 266 266 267 267 267 267 267 267 266 267 268 272 274 273 274 276 277 278 278 279 280 280 281 282 283 284 282 282 282 283 284 284 284 284 285 285 286 287 287 287 287 287 287 286 286 286 286 286 286 286 286 286 286 286 286 285 285 284 284 283 282 281 280 279 279 279 279 279 279 277 276 275
263 263 264 265 265 265 265 265 264 264 264 264 265 265 266 266 267 267 267 267 266 266 266 267 269 271 272 273 274 275 276 277 278 278 279 280 280 281 279 279 280 281 282 283 284 285 285 285 286 286 287 287 287 287 287 287 286 286 286 286 285 285 285 285 286 286 286 286 285 284 283 283 283 281 281 280 279 279 279 278 278 278 277 276 275
262 262 262 263 263 263 263 263 263 263 264 264 264 264 265 265 266 266 265 265 265 265 265 266 267 268 270 271 272 273 275 277 278 278 279 280 281 281 279 280 280 281 282 283 284 285 285 285 286 287 287 287 287 287 287 287 287 286 285 286 285 285 285 285 285 285 285 284 284 283 283 283 282 281 280 279 278 278 278 278 277 276 275 274 274
261 261 261 262 262 262 262 262 263 264 264 264 264 264 264 264 264 264 264 264 264 264 265 266 267 267 267 268 272 272 272 274 275 276 277 278 278 279 280 281 281 281 282 283 284 285 285 286 287 287 287 288 287 287 287 287 286 286 285 285 285 284 284 284 284 284 284 284 283 282 282 282 281 280 279 278 277 277 277 276 276 274 273 273 273
261 262 262 262 262 262 262 262 262 262 262 263 263 263 263 263 263 263 263 263 264 264 265 266 266 266 267 269 270 272 273 272 272 273 275 277 279 280 281 282 282 282 283 284 285 285 286 286 286 287 287 287 287 287 286 286 286 285 285 284 283 283 282 283 283 284 283 283 282 282 281 281 280 280 279 278 277 277 276 276 275 274 273 273 273
260 260 261 262 261 261 261 261 261 261 261 261 261 262 262 262 262 262 263 263 263 264 264 265 265 266 268 269 269 270 270 270 271 273 274 276 278 279 281 282 283 283 284 284 285 285 286 286 287 287 287 287 287 286 286 285 285 284 284 283 282 282 282 282 282 282 282 282 282 281 281 280 279 279 278 278 277 277 276 275 274 274 274 273 272
259 260 261 261 261 261 261 261 261 261 261 261 261 261 261 261 262 262 262 263 263 263 264 264 265 266 268 268 270 270 269 269 270 272 273 274 276 278 280 282 283 283 284 285 285 286 286 286 287 287 287 287 287 286 285 284 283 283 282 281 281 281 281 281 281 281 281 280 280 280 279 279 278 278 277 276 276 276 275 274 274 273 273 272 271
259 259 259 259 260 260 260 260 260 260 260 260 260 260 261 261 261 262 262 262 262 263 263 264 265 266 268 269 269 270 270 270 271 272 273 275 276 277 279 280 282 283 285 285 286 286 286 287 287 287 287 287 286 285 284 283 282 281 281 280 280 279 279 279 279 279 278 278 278 278 278 277 277 277 276 275 275 274 273 273 273 272 272 271 270
259 259 259 259 259 259 259 259 260 259 259 259 260 261 261 261 261 262 262 262 263 263 263 264 265 266 267 268 269 270 270 270 271 272 273 274 275 277 278 280 282 284 285 286 286 287 287 287 287 287 287 286 286 284 283 282 282 281 280 280 279 279 278 278 277 277 277 277 277 276 276 276 276 275 274 274 274 273 273 272 271 271 271 270 270
259 259 259 259 259 259 259 259 259 259 259 260 260 260 260 261 261 261 261 262 262 263 263 263 264 265 266 267 268 269 269 270 271 272 272 273 275 276 278 280 282 284 285 286 286 287 287 287 287 287 287 286 285 285 284 283 282 281 280 279 279 277 277 277 276 276 276 276 275 275 275 275 274 274 273 273 273 272 272 271 271 270 270 270 269
258 258 258 258 258 258 258 258 258 258 259 259 259 259 260 260 260 261 261 261 262 263 263 264 264 265 266 267 268 269 270 271 272 272 273 274 275 276 279 281 282 283 284 285 286 286 286 286 286 285 284 284 284 284 283 283 282 281 281 280 278 276 276 276 276 276 276 275 275 274 274 274 273 273 272 272 272 272 271 271 271 270 270 270 269
258 258 258 257 257 257 257 257 258 258 258 258 258 259 259 260 260 261 261 261 262 262 263 264 264 265 266 267 268 269 270 271 271 273 274 275 276 277 278 278 279 280 281 282 282 283 284 284 282 281 281 280 281 281 280 280 280 280 279 279 278 277 277 276 276 275 275 275 274 274 274 273 273 272 271 272 272 271 271 271 270 270 270 270 270
257 257 257 257 257 257 257 258 258 258 258 258 259 259 260 260 261 261 262 262 262 263 263 264 265 265 266 268 269 270 271 272 273 273 274 275 276 276 277 276 275 274 274 274 275 277 279 279 279 279 278 278 278 277 277 277 277 277 277 277 276 275 275 275 275 274 274 274 274 274 273 272 271 271 270 271 270 270 270 270 270 270 270 270 270
257 257 257 257 257 257 257 257 257 258 258 258 258 259 259 259 260 260 261 262 262 263 263 264 265 266 266 266 267 267 268 269 269 270 271 271 272 272 272 271 271 271 271 271 271 272 273 274 275 275 275 275 274 274 274 274 274 274 274 274 274 274 273 273 274 274 274 274 273 273 272 271 271 270 270 270 270 269 269 269 269 270 269 269 269
257 257 257 257 256 256 256 256 257 256 256 257 257 257 258 258 259 260 261 261 262 262 263 263 264 265 266 267 267 267 266 267 267 269 270 270 269 268 268 268 268 269 269 269 269 270 270 271 271 272 272 272 272 271 271 271 271 272 272 272 272 271 272 272 272 273 272 273 272 272 272 271 270 270 269 269 269 269 269 269 269 269 269 269 269
256 257 256 256 256 256 256 256 256 256 256 256 256 257 257 258 258 259 260 260 261 261 262 263 264 264 264 264 264 265 265 265 266 266 266 266 266 266 266 267 267 267 267 266 267 267 267 267 268 268 268 268 269 269 269 270 270 270 271 271 270 271 271 271 271 271 271 272 271 271 271 270 269 269 269 269 269 268 268 268 268 268 268 268 268
256 256 256 256 255 256 255 255 255 255 255 255 256 256 257 257 258 259 259 259 260 260 262 262 262 262 262 263 263 263 263 264 264 265 265 265 265 265 266 266 265 265 265 266 266 266 266 266 266 266 266 266 267 267 267 268 268 269 269 270 270 270 270 270 270 270 270 270 270 270 269 269 268 268 268 268 268 268 267 267 267 267 267 267 266
Wind_Speed
12 12 12 13 14 14 13 13 14 12 13 12 10 10 10 9 9 9 10 10 10 11 12 13 14 14 14 12 11 9 8 7 7 7 8 8 9 10 11 10 11 11 10 12 11 10 11 12 13 14 12 12 10 10 11 12 10 9 8 8 9 8 9 9 10 10 5 1 2 4 6 6 6 7 7 6 6 6 6 6 7 6 7 6 5
10 11 11 11 13 13 13 12 12 12 13 12 12 12 11 11 10 10 10 10 9 11 11 11 11 13 13 14 13 12 10 9 8 7 8 10 12 10 10 12 12 12 11 12 11 10 11 13 14 14 12 12 12 12 11 11 11 10 10 10 10 10 10 9 10 8 9 3 3 1 3 5 7 5 8 8 6 6 7 5 5 6 6 6 6
9 9 9 10 12 12 12 11 12 13 13 12 13 13 13 12 11 11 11 10 10 9 10 11 12 12 13 13 13 13 13 11 8 9 10 11 12 11 10 12 12 13 13 13 13 11 12 12 14 13 10 12 15 13 12 12 11 12 12 10 11 10 9 11 8 10 9 7 4 4 3 4 6 7 6 6 7 8 8 7 6 5 5 6 6
10 10 9 10 10 11 11 11 12 12 13 12 13 13 12 12 12 12 12 11 12 12 10 10 11 12 12 13 13 14 14 13 12 10 12 11 12 12 11 12 12 13 13 13 13 12 13 13 14 13 12 13 14 12 12 12 12 12 13 11 11 11 9 8 11 8 7 8 7 7 4 3 3 3 7 5 7 7 7 6 6 6 5 6 8
9 10 10 10 10 10 11 10 11 12 12 11 13 13 12 12 11 12 13 13 13 12 11 9 9 10 11 12 13 13 13 14 14 14 12 11 12 12 12 12 13 13 13 13 13 13 14 14 14 13 13 13 12 12 12 13 13 12 12 11 11 10 8 9 9 9 9 9 7 6 4 4 3 3 6 7 5 4 5 7 7 7 4 6 6
8 10 10 10 10 10 10 10 11 11 11 11 12 11 11 11 12 11 11 14 14 12 12 11 10 11 11 11 11 12 12 12 14 15 14 13 13 12 12 12 13 13 13 13 12 12 13 13 14 13 13 14 15 14 13 15 14 13 13 12 11 10 10 9 9 9 10 10 7 6 5 7 4 2 3 6 7 4 4 4 4 5 7 6 5
8 8 10 10 10 10 10 10 11 10 10 11 10 10 10 10 11 12 11 12 13 13 13 13 12 11 12 11 11 11 12 12 12 14 15 15 15 14 13 13 13 13 13 13 13 13 13 13 13 13 14 14 15 15 14 13 13 14 14 13 11 10 10 10 10 10 10 9 8 8 6 5 7 7 4 4 6 6 8 5 5 5 5 9 5
7 7 8 9 9 10 9 9 9 10 10 10 10 10 10 10 10 11 11 12 12 12 13 14 13 12 12 11 11 10 11 11 11 12 12 13 13 14 13 13 13 13 13 13 13 13 14 14 14 14 14 14 14 14 13 12 12 13 12 11 11 12 12 11 10 11 10 10 9 8 8 7 4 2 2 4 4 1 5 6 8 5 5 4 7
7 7 8 8 9 9 10 8 8 9 10 10 10 10 10 10 10 10 10 11 10 11 12 12 13 14 13 11 12 11 10 10 9 10 12 14 14 15 16 14 14 14 14 13 13 14 14 14 14 14 16 17 19 18 17 16 12 12 12 11 12 12 12 10 11 10 10 10 9 8 8 8 8 8 7 8 11 11 5 4 5 6 5 5 2
6 7 8 8 9 9 9 9 10 10 10 10 10 10 10 10 11 11 11 11 11 11 11 11 11 12 14 13 11 10 10 8 10 16 15 13 13 13 14 15 14 13 13 14 14 14 15 14 14 20 20 21 20 19 19 18 18 15 12 11 13 13 13 12 11 11 11 11 11 9 10 11 10 10 10 8 5 5 7 6 7 4 6 6 4
7 7 8 8 8 8 8 8 9 10 10 10 9 10 11 10 11 11 11 11 12 12 11 12 12 11 12 13 14 11 10 10 16 17 18 18 14 12 13 14 15 15 13 12 14 13 13 14 14 17 18 18 18 20 19 20 18 19 19 19 17 16 14 14 13 12 11 12 10 10 12 12 12 11 10 8 6 8 8 7 6 6 7 7 6
7 7 8 9 8 9 8 9 9 10 9 10 11 10 10 11 11 11 12 13 12 11 12 12 12 12 11 12 13 13 12 13 17 18 17 18 16 13 12 12 13 13 14 14 11 11 12 12 12 12 12 14 15 15 17 18 20 20 21 20 20 21 19 15 13 11 13 12 11 13 12 13 12 9 8 9 10 8 7 8 8 8 7 9 6
7 8 8 8 9 9 9 9 9 9 9 9 10 11 11 11 11 12 12 12 12 12 13 12 13 13 12 13 14 13 13 15 17 19 18 18 19 16 11 12 12 13 14 14 14 13 11 11 12 12 12 17 16 14 13 15 17 21 21 21 19 20 19 20 18 15 12 13 13 12 13 12 10 10 10 11 8 9 7 9 9 8 8 9 7
7 8 8 8 9 9 9 10 10 9 9 8 9 11 11 12 12 11 11 11 12 13 13 14 13 13 13 13 14 13 14 16 19 19 19 19 19 16 12 13 12 13 13 14 14 14 13 11 11 11 11 11 11 13 13 13 12 13 14 14 14 17 20 22 22 22 18 15 14 14 12 10 12 8 8 10 11 11 11 11 8 9 10 9 5
7 7 8 8 8 9 9 10 11 10 9 9 10 10 10 12 12 11 10 11 12 12 13 14 13 13 13 13 13 15 13 18 20 21 19 19 19 16 12 13 12 13 13 13 14 14 14 14 12 12 12 12 10 13 13 13 13 13 14 15 15 14 14 15 16 15 14 13 14 13 10 10 8 8 9 9 11 9 10 8 8 6 4 4 6
8 7 8 8 8 9 9 10 10 10 10 10 10 10 11 11 12 12 11 11 10 10 11 11 14 15 14 14 14 15 16 19 19 20 20 20 22 14 13 13 13 13 14 14 14 13 13 14 14 13 12 13 15 19 18 14 13 14 14 14 14 12 12 15 18 19 15 12 10 10 8 9 10 10 9 9 8 6 5 4 6 6 7 5 5
8 8 8 9 10 9 9 10 10 11 11 10 11 11 12 12 11 10 12 12 12 12 12 12 12 13 16 15 15 16 15 18 20 21 21 22 18 12 12 11 12 13 14 13 13 13 13 14 14 14 13 13 14 17 18 19 13 14 14 14 13 12 11 6 4 10 15 16 15 13 12 14 15 15 15 16 11 10 8 8 9 9 9 8 5
9 9 9 9 10 9 9 10 11 11 10 10 11 11 11 11 11 10 11 12 13 13 13 13 12 12 14 16 15 16 17 18 21 22 22 21 18 14 11 11 13 13 14 13 12 12 14 19 17 16 15 14 15 17 19 18 14 13 14 14 13 13 11 6 4 2 2 6 9 11 12 12 14 15 17 17 18 15 11 12 9 9 9 8 8
10 10 10 10 10 9 9 10 10 10 10 10 10 12 13 12 11 10 10 11 13 12 13 13 14 13 12 14 18 18 16 18 19 20 23 21 17 12 11 10 13 13 12 13 12 12 13 14 19 19 17 17 18 16 19 18 15 15 14 14 14 15 14 11 10 8 5 5 3 6 4 6 6 7 9 16 18 16 13 10 10 10 10 7 7
10 9 10 10 10 10 9 11 11 10 9 10 11 12 12 12 12 12 11 10 12 12 12 13 15 15 13 13 13 14 16 16 16 20 21 22 21 15 11 11 12 14 12 12 13 12 12 12 13 18 21 22 21 17 19 21 17 15 13 13 14 16 11 12 11 11 10 9 8 7 8 6 6 5 6 8 9 6 7 9 11 10 9 9 9
9 9 10 10 11 11 11 10 10 10 9 11 12 11 11 12 12 12 13 13 12 13 14 14 14 15 14 13 12 13 12 15 16 19 21 21 21 18 12 12 12 12 12 13 12 13 12 11 10 13 17 19 20 18 18 21 21 15 14 13 16 13 12 11 11 11 10 8 8 7 6 5 6 6 7 7 7 6 5 7 9 9 10 11 9
9 9 11 12 12 12 11 10 9 10 11 12 12 12 11 12 12 14 13 13 15 15 15 13 13 15 14 14 12 13 12 16 15 17 19 21 20 21 14 12 12 11 13 13 13 12 12 11 10 11 15 17 19 19 19 20 22 14 14 19 15 15 16 12 11 9 8 8 8 7 7 7 7 6 6 7 7 6 5 5 6 5 2 3 11
10 11 12 13 12 11 10 11 12 11 12 12 12 13 13 14 14 14 14 15 15 16 16 15 14 14 14 13 11 12 11 11 16 16 18 19 21 20 21 18 18 13 11 13 14 13 12 11 11 14 14 15 17 17 17 20 19 16 20 16 14 18 13 9 9 9 8 8 9 9 8 8 8 8 8 7 6 6 6 5 6 6 5 5 4
11 11 11 11 11 11 12 12 13 12 12 12 12 14 16 15 14 13 13 13 13 14 14 14 13 13 14 14 12 10 11 11 12 17 16 17 18 21 22 23 21 13 12 13 13 13 13 12 11 15 14 14 16 15 15 16 12 17 15 13 17 16 10 10 10 10 9 9 9 9 9 8 8 8 8 7 7 7 7 6 7 7 9 7 7
11 11 11 11 12 12 12 12 13 11 12 12 14 15 16 15 14 13 13 13 13 14 14 13 13 12 12 12 11 11 10 11 11 13 17 17 19 21 22 24 23 20 14 12 12 12 15 21 21 17 14 14 15 14 12 13 15 12 12 15 15 9 10 10 10 10 10 11 11 9 9 9 8 7 7 8 8 8 8 6 6 8 9 11 10
12 12 12 12 13 13 14 14 13 13 14 13 14 14 15 15 14 13 13 13 13 13 13 13 12 11 12 11 13 12 12 10 11 11 10 11 13 18 22 23 22 20 17 15 19 20 22 23 23 17 12 10 8 6 6 8 12 13 13 15 10 10 10 10 11 12 12 11 11 11 9 7 7 7 9 9 9 8 8 8 8 6 7 8 9
13 12 13 13 13 12 13 12 13 14 15 14 13 13 13 13 13 14 13 13 13 13 13 13 13 13 13 12 12 12 12 11 11 11 9 9 10 12 12 11 11 12 10 10 11 11 14 16 13 11 9 11 11 10 9 8 7 8 6 7 7 9 10 11 13 13 11 10 9 7 7 7 8 9 9 9 9 7 7 9 9 7 7 6 9
12 12 13 12 11 12 13 15 16 14 14 13 13 13 13 13 13 14 13 13 13 14 13 13 13 12 11 11 12 13 14 13 11 11 11 10 10 10 10 10 11 11 13 11 10 11 12 12 13 9 7 7 7 6 6 6 6 7 7 7 7 6 8 9 8 7 7 7 7 7 8 9 10 9 8 8 8 7 7 8 10 9 8 9 8
11 12 12 12 13 13 13 13 13 13 14 14 14 13 14 14 14 14 14 11 11 11 11 13 14 14 14 14 15 15 14 15 15 14 15 16 16 14 12 12 12 13 16 22 18 16 13 12 9 8 8 8 7 7 7 8 8 9 9 9 7 7 8 9 11 10 9 10 11 11 11 10 10 9 9 9 8 8 7 7 7 11 7 6 9
11 13 12 12 13 13 12 12 13 13 13 14 15 14 15 18 17 15 15 20 27 29 25 20 19 17 15 14 12 14 15 17 22 28 28 28 29 28 26 27 27 21 22 31 20 16 15 13 11 10 10 10 10 10 9 9 9 9 9 10 9 8 8 8 8 8 9 11 10 11 11 11 10 10 10 10 8 8 8 9 8 9 10 8 10
11 12 13 12 13 13 13 13 12 13 14 15 13 13 14 17 26 32 30 30 32 34 35 36 36 33 23 19 20 32 34 36 37 35 36 36 35 34 33 31 30 29 30 19 15 13 14 14 12 11 11 10 11 11 10 10 10 10 9 9 8 9 8 7 6 6 7 8 9 10 10 11 11 11 11 10 11 9 8 6 8 8 8 10 10
11 12 13 14 15 15 13 14 15 15 14 13 12 13 14 16 18 22 28 29 30 31 30 31 31 30 33 30 25 20 26 32 35 35 34 31 31 30 30 32 31 31 29 27 17 15 14 14 13 12 10 12 12 11 10 10 10 10 8 9 9 9 11 11 10 10 10 9 10 11 12 12 11 11 10 10 10 10 10 9 9 9 8 7 8
13 14 15 15 15 16 16 15 15 13 13 12 13 13 13 13 16 17 19 23 28 29 30 31 32 32 34 35 35 31 30 30 35 36 38 35 32 27 31 35 32 30 30 20 14 15 15 14 14 13 12 12 12 11 10 10 10 10 10 11 11 9 8 8 10 10 11 11 11 11 11 11 11 10 10 10 11 11 11 10 9 8 8 9 8
14 13 13 15 15 15 15 15 14 12 11 11 14 15 14 13 14 13 15 16 16 19 24 29 31 34 34 34 32 31 31 32 32 34 37 34 34 34 31 25 29 31 25 17 14 16 15 14 15 14 13 12 11 10 10 10 10 10 10 9 9 8 8 7 9 10 10 11 11 11 11 11 11 12 11 10 10 10 10 10 10 11 10 10 11
13 17 26 22 14 15 15 14 13 14 15 14 14 14 15 15 16 16 15 16 15 16 16 18 20 24 22 22 26 30 30 31 31 31 32 32 32 31 30 19 18 15 15 15 15 16 16 15 14 14 13 12 11 11 12 11 11 11 11 10 9 8 9 10 10 10 10 10 11 12 12 13 12 11 12 12 12 12 11 11 11 11 11 11 11
13 13 13 15 14 12 13 13 14 15 15 14 15 15 16 15 15 14 14 14 14 16 18 17 17 18 28 27 32 32 33 32 32 33 31 32 32 30 20 16 16 16 14 13 14 15 15 14 14 14 13 12 11 11 11 11 12 11 10 10 10 11 11 11 10 10 10 10 10 11 11 11 11 11 11 11 13 13 12 13 12 11 10 11 10
12 12 13 13 12 13 14 14 14 15 17 16 15 15 15 16 15 14 15 15 17 17 16 16 15 16 20 18 22 23 27 28 28 28 29 28 30 23 17 16 16 16 15 14 14 14 14 14 14 13 12 12 11 11 11 11 11 11 10 11 10 11 11 11 11 9 9 9 9 10 11 11 12 12 13 13 12 11 11 11 11 11 11 12 12
12 12 11 12 12 14 14 14 15 19 17 15 15 14 15 15 15 15 16 17 18 18 17 16 17 15 17 18 15 12 17 23 28 26 24 24 20 16 16 16 16 16 16 14 15 14 14 13 13 13 12 11 11 11 11 11 11 11 11 11 11 11 12 11 12 12 11 10 10 11 11 11 11 11 11 13 13 13 12 12 11 11 10 12 11
11 17 23 24 19 15 14 15 15 15 14 15 14 14 16 16 16 15 15 15 15 16 16 14 14 16 16 13 13 11 14 14 14 14 15 14 14 14 14 14 14 15 15 15 14 14 13 14 12 12 12 11 10 9 10 10 10 10 11 11 10 10 12 11 12 12 12 12 11 11 11 11 11 11 11 12 12 12 13 13 12 13 13 12 10
12 12 14 20 15 16 15 15 15 15 15 15 14 13 15 16 15 15 15 14 16 16 16 16 16 15 14 12 13 12 13 15 14 14 14 14 14 14 14 15 16 16 15 14 13 13 14 13 12 12 12 11 10 9 9 9 9 10 10 11 11 11 12 12 11 12 12 12 12 11 12 12 11 11 11 10 11 11 13 13 12 12 11 11 10
11 12 13 15 16 15 15 15 15 15 14 15 15 15 15 17 17 16 15 16 16 17 17 16 16 15 15 19 26 24 16 16 16 16 16 16 15 15 14 14 15 16 14 13 13 12 13 13 12 12 11 11 10 10 9 9 9 9 10 10 11 10 10 10 11 11 10 11 11 12 12 12 12 12 12 10 10 10 9 10 10 9 9 10 11
12 12 12 12 14 13 13 14 15 17 16 16 16 15 16 16 16 15 17 17 18 18 17 16 16 15 19 29 27 29 20 16 17 17 16 15 15 16 16 15 14 16 15 13 12 12 12 12 12 11 11 10 10 10 10 10 10 11 11 11 11 11 11 11 11 11 12 11 11 11 11 12 12 12 12 11 11 10 10 10 10 10 10 11 10
13 12 12 13 13 12 13 14 14 14 14 14 15 16 18 17 15 16 17 17 17 17 17 17 15 14 17 23 23 26 17 15 16 17 15 15 15 16 16 15 14 14 13 12 11 11 11 11 11 11 11 11 10 11 11 11 11 10 10 11 11 11 12 11 11 11 11 11 11 11 12 12 12 11 11 11 10 10 10 11 10 10 10 11 11
12 13 13 13 13 13 13 13 14 15 14 17 19 18 17 16 15 15 15 16 17 16 17 17 17 17 16 17 18 16 13 14 13 14 17 16 16 14 13 13 14 15 14 12 11 11 11 11 10 10 9 10 10 11 11 10 11 12 12 12 12 12 12 12 13 13 14 13 13 13 13 12 12 12 12 12 13 13 11 10 10 10 11 10 11
11 12 12 13 13 13 13 13 13 15 18 17 14 14 16 15 15 15 15 16 17 17 16 16 16 16 17 15 12 12 12 13 14 15 15 15 13 14 13 12 13 13 12 11 10 10 10 10 9 9 9 8 9 10 10 9 10 11 11 13 12 13 13 13 12 11 11 13 13 13 12 12 13 12 12 11 12 13 12 12 11 11 11 10 11
11 12 13 13 14 14 14 13 14 13 14 14 14 14 13 14 15 16 16 17 17 16 15 15 15 17 15 12 12 14 14 14 15 14 12 12 13 13 13 13 13 12 12 11 9 9 9 8 8 8 9 8 9 8 8 8 9 8 9 9 10 10 9 9 9 10 11 12 12 12 12 12 12 11 13 12 11 11 12 11 11 11 11 12 11
12 12 13 13 13 14 14 14 13 13 13 13 13 14 13 13 14 14 16 17 17 17 15 14 12 11 11 11 13 11 11 11 11 11 13 13 13 13 13 13 11 8 6 5 4 5 6 7 8 9 9 9 9 10 9 8 8 7 7 7 8 9 9 9 10 11 11 11 11 11 12 13 13 12 13 12 11 12 12 12 12 13 11 11 12
11 11 12 12 12 13 13 13 14 16 14 14 14 15 15 15 15 16 15 15 15 15 14 12 11 11 13 16 13 18 17 16 16 16 16 16 15 13 10 8 6 5 2 1 1 2 3 5 6 7 8 8 9 9 8 8 8 8 7 8 9 10 13 14 11 11 10 11 11 12 13 13 12 13 13 13 13 12 13 11 10 10 11 11 11
11 11 11 12 12 13 13 13 14 13 13 13 14 14 14 14 14 14 14 14 14 13 12 12 12 14 12 10 9 12 13 15 16 17 15 12 9 5 3 3 2 2 1 3 3 3 4 5 6 6 7 7 8 9 10 9 9 8 9 8 12 19 20 19 13 12 13 12 12 12 11 12 13 13 13 13 13 12 11 11 11 11 11 11 11
10 10 11 11 12 12 12 12 12 12 13 13 13 14 14 14 14 14 14 13 12 13 11 13 13 12 12 14 14 12 11 11 11 10 7 4 2 2 1 0 1 2 3 3 3 4 5 5 6 7 7 7 8 8 8 8 8 9 9 11 18 21 20 20 19 20 15 10 12 11 13 13 13 12 12 12 13 13 13 12 11 11 11 12 12
10 10 11 10 11 11 12 11 12 12 12 12 13 13 13 13 13 13 12 13 12 12 11 10 11 11 11 11 10 10 9 8 6 5 3 2 1 0 1 1 2 3 4 4 5 5 6 6 6 7 7 7 7 7 6 7 7 8 13 19 21 20 21 19 16 17 17 14 11 11 12 14 15 14 13 12 12 12 13 13 12 12 11 11 11
Wind_Direction
353 357 350 349 347 348 347 347 347 346 345 346 347 347 346 343 341 340 335 342 343 342 339 335 328 321 317 312 305 289 272 262 257 254 251 257 253 243 240 232 227 229 227 225 217 217 220 225 228 229 227 229 230 229 227 229 235 232 225 218 219 208 201 213 226 247 282 263 180 202 192 162 189 178 179 176 174 192 186 178 158 164 165 174 165
352 348 350 344 346 343 343 343 342 343 343 344 345 345 343 343 340 341 341 334 339 337 333 329 326 324 319 317 315 310 296 279 269 255 245 244 251 246 246 237 232 229 227 230 226 220 220 225 230 231 222 228 230 231 228 226 228 231 225 220 223 216 207 207 223 227 238 284 276 277 183 194 185 192 176 175 177 170 183 180 171 168 171 158 137
342 342 340 342 341 340 338 340 342 341 342 341 343 343 341 339 342 342 338 334 333 333 328 326 328 326 324 323 322 318 313 296 276 262 253 247 249 247 244 242 236 232 228 228 227 224 225 227 230 231 220 224 231 228 225 227 225 229 230 223 224 221 210 209 210 222 224 233 240 252 212 203 194 200 199 189 182 179 180 187 176 174 180 151 138
340 339 337 336 335 336 337 336 340 340 340 339 338 340 338 338 339 338 335 335 334 330 326 324 327 328 327 327 327 323 317 313 302 275 262 253 247 247 242 243 240 237 233 230 227 221 222 226 229 226 222 220 229 228 225 224 224 226 229 226 226 223 214 209 212 219 216 221 225 225 229 191 245 201 200 191 175 185 187 185 179 171 167 130 134
337 335 335 331 332 333 333 335 336 336 336 334 334 335 336 335 337 336 334 333 332 328 325 326 326 326 327 325 323 320 317 312 306 300 285 263 253 248 244 239 239 240 237 235 231 225 223 223 225 221 221 225 224 225 224 221 223 224 224 224 223 222 217 214 213 213 215 216 219 220 216 235 210 201 183 175 183 178 188 179 181 173 135 98 101
333 332 331 330 329 330 330 332 332 331 329 330 330 330 331 332 333 332 333 330 327 326 325 326 327 323 320 318 314 312 311 309 306 300 297 288 266 252 246 243 244 241 236 232 229 227 230 229 228 220 220 219 225 225 220 222 220 220 222 220 219 216 217 217 212 212 216 221 200 212 203 204 228 231 221 168 161 151 168 194 163 156 127 106 111
328 330 326 326 324 325 328 329 327 325 325 324 323 324 326 328 329 329 330 327 324 324 325 323 322 321 317 312 310 309 309 308 305 302 299 295 288 267 250 246 245 246 241 237 233 231 227 230 231 225 223 220 225 227 223 224 225 224 221 219 215 214 216 217 213 212 214 216 213 206 202 216 193 214 245 164 161 156 162 159 176 179 143 143 137
322 321 321 320 321 320 321 322 321 319 318 317 318 320 322 323 324 323 325 324 324 322 322 321 319 317 314 310 307 307 303 303 304 303 302 299 296 288 269 256 250 245 241 237 235 234 232 228 228 228 225 224 221 224 219 220 221 225 221 215 212 212 216 216 213 213 214 215 214 210 205 197 220 207 139 153 155 263 188 163 177 179 147 146 158
315 316 317 314 312 313 316 316 315 316 316 316 317 320 321 320 319 320 319 320 318 317 315 316 316 315 312 310 309 308 304 300 303 310 315 313 311 311 306 289 264 252 246 243 235 232 232 232 231 229 227 227 221 219 218 216 216 219 217 209 214 213 215 213 212 210 212 212 216 203 199 198 193 181 190 193 204 194 191 141 174 183 153 124 87
306 308 308 308 309 309 309 311 314 315 315 314 317 317 318 318 318 318 317 315 316 314 314 312 312 312 312 312 310 307 304 302 302 303 301 300 304 304 301 299 295 276 259 250 243 236 232 231 229 228 226 224 221 219 219 217 216 216 215 207 212 213 213 212 210 207 207 209 210 200 205 205 196 194 191 205 172 123 161 174 169 184 143 134 127
303 302 303 302 303 305 308 308 311 314 311 313 313 315 317 318 316 315 314 314 313 313 313 313 311 311 311 310 310 307 303 303 302 298 297 296 296 298 298 298 293 291 284 265 256 247 237 233 232 226 224 225 221 219 217 217 216 218 217 211 208 208 211 211 211 204 205 212 209 206 211 213 208 194 197 181 182 174 175 174 169 157 168 167 186
296 298 298 300 302 304 303 303 306 306 309 311 313 315 314 314 314 314 314 314 312 311 311 309 309 310 308 307 305 305 301 298 299 299 297 296 294 293 294 294 294 290 285 281 271 256 246 239 231 228 222 219 221 219 221 219 217 219 219 216 211 209 209 207 207 206 207 211 209 211 209 214 209 192 191 173 190 182 179 171 181 181 182 188 184
290 296 296 297 299 300 302 303 301 302 304 307 311 314 314 312 312 312 312 311 311 312 309 309 308 307 308 307 304 302 301 302 303 301 300 298 295 294 289 288 289 288 285 281 278 272 259 245 243 231 227 215 213 219 216 221 223 222 219 217 214 207 210 213 210 209 206 209 213 211 209 206 203 204 183 183 160 182 180 189 191 194 193 193 192
286 289 289 292 295 298 301 301 300 300 300 304 309 309 311 310 309 307 307 308 310 308 308 307 306 305 305 304 301 300 298 303 303 301 300 297 294 293 289 288 285 283 281 280 278 277 271 260 244 239 236 223 212 216 214 215 216 224 224 221 219 215 211 210 214 214 206 208 208 213 208 190 206 185 173 157 165 185 185 197 186 191 192 193 164
287 287 289 289 292 296 298 299 300 300 301 304 305 304 305 307 306 307 306 307 307 307 307 308 305 302 301 300 300 299 297 298 301 300 299 297 297 298 291 288 283 280 278 276 277 275 274 271 263 249 235 227 217 211 213 213 214 215 215 217 219 215 212 215 215 214 210 211 209 211 198 193 193 161 165 175 175 179 180 180 177 172 117 75 52
285 287 289 290 292 294 294 295 298 300 302 302 302 303 303 300 303 305 304 302 297 297 298 298 300 301 300 300 299 296 296 296 298 299 301 302 299 294 288 285 284 280 278 276 272 272 272 271 269 262 250 236 220 209 207 207 209 211 213 215 216 216 218 217 216 209 205 203 203 197 186 181 171 171 169 174 178 150 116 102 113 118 138 154 165
286 284 284 290 293 293 292 293 295 297 298 299 301 302 301 300 299 302 300 300 299 300 298 296 297 298 300 299 297 294 293 297 299 299 299 298 296 287 282 281 280 279 275 274 271 268 264 262 265 266 259 249 230 211 206 204 207 208 211 212 212 211 217 221 261 223 208 195 182 174 171 175 177 181 181 178 171 151 136 145 176 162 162 175 171
284 284 284 288 290 291 293 294 293 291 293 296 297 297 298 296 293 296 293 296 297 297 297 297 295 293 293 295 294 294 294 294 296 297 295 294 292 287 282 280 280 279 280 276 273 266 261 254 252 258 258 255 239 214 206 202 208 209 211 209 209 211 213 188 179 165 133 161 161 152 154 164 173 179 186 181 165 158 162 189 178 158 176 179 175
282 285 287 289 289 290 293 292 291 290 288 290 294 296 295 292 291 289 286 287 288 294 295 295 293 290 288 288 291 290 290 292 293 292 293 293 293 288 282 277 279 280 282 283 275 267 264 254 247 245 248 251 246 221 209 201 209 210 208 207 207 210 207 180 178 167 160 140 115 119 105 128 144 155 172 169 167 175 184 173 151 172 180 182 154
280 284 289 290 290 292 292 291 289 287 289 292 293 290 288 288 288 288 286 285 287 287 288 288 290 291 289 286 286 286 288 289 291 290 290 292 291 288 282 277 277 280 281 281 284 277 266 261 248 242 242 243 243 227 214 204 209 211 206 205 206 214 191 173 187 176 171 169 161 155 150 141 135 131 142 152 165 175 171 160 169 171 177 176 176
286 289 291 292 292 291 289 286 289 291 292 291 289 284 282 282 285 287 289 288 285 284 283 284 284 285 287 284 281 281 282 287 290 290 291 290 291 291 286 275 272 277 281 279 276 278 276 263 257 246 239 240 240 232 217 211 211 211 206 207 209 204 148 168 180 173 163 155 146 142 139 145 154 155 159 156 153 153 148 162 174 180 175 175 177
291 294 293 291 290 287 286 289 292 293 291 288 285 283 281 282 283 284 283 284 284 282 281 281 280 281 282 282 281 280 280 281 288 289 289 289 289 290 288 279 269 273 277 277 278 278 274 278 272 249 237 235 238 231 220 214 213 216 212 213 202 150 164 171 161 160 156 151 151 150 153 159 163 164 163 157 153 145 134 130 131 100 78 190 177
294 293 291 288 285 285 287 289 291 290 285 282 283 287 288 285 280 277 278 278 278 279 280 280 280 280 280 280 278 279 281 281 282 286 287 287 290 291 288 287 277 265 264 271 276 279 280 280 275 263 244 237 236 234 227 219 214 214 217 205 164 160 146 152 155 157 155 158 157 165 171 169 167 171 167 158 152 136 120 111 102 100 95 74 39
296 293 288 284 285 285 285 287 285 280 279 282 287 287 285 281 278 275 271 271 274 277 276 278 278 278 280 280 277 276 278 280 278 279 286 289 292 295 294 289 282 267 260 265 274 275 282 279 282 270 245 234 235 234 230 224 219 220 213 179 160 151 151 148 159 161 159 158 171 174 181 182 169 166 170 157 146 132 110 99 87 97 95 74 63
295 288 284 284 285 286 287 285 280 277 280 285 286 283 280 279 279 274 271 268 267 268 271 273 274 275 274 274 278 276 275 275 276 278 282 291 294 294 294 290 285 276 267 266 263 271 272 275 281 276 251 235 233 233 230 226 219 206 184 168 157 157 158 162 160 159 165 180 184 182 177 183 177 156 134 129 120 108 101 78 65 76 78 80 65
292 287 286 285 285 286 284 280 278 278 281 280 275 273 273 275 274 275 272 269 266 265 267 270 269 268 268 270 274 277 277 275 278 281 280 284 287 291 290 287 281 276 267 267 270 273 276 277 277 268 250 239 235 234 233 229 218 199 185 171 169 167 164 163 165 169 183 182 179 181 177 154 148 144 135 134 140 145 133 125 121 103 115 111 93
288 287 285 284 283 281 280 281 283 284 281 278 275 272 270 269 270 271 270 270 267 265 265 265 268 270 273 277 278 279 280 278 278 280 279 279 280 282 283 286 291 292 286 278 278 276 273 271 264 247 228 224 216 223 229 236 225 205 187 194 190 176 171 176 177 179 177 174 175 164 148 143 124 129 149 155 150 150 146 142 136 141 130 123 115
285 284 284 284 283 282 282 280 280 280 277 276 277 275 270 266 266 267 268 267 268 267 265 264 266 271 280 284 285 286 282 280 272 274 277 276 276 274 281 290 297 304 298 295 296 294 287 276 260 244 234 230 228 222 222 213 207 208 202 203 204 188 176 163 158 166 169 163 148 137 136 146 155 154 147 150 153 148 152 148 146 143 144 133 114
286 286 284 284 281 279 278 277 277 277 277 275 269 267 269 267 265 265 261 262 268 276 281 280 280 280 282 281 282 281 279 275 272 270 271 273 274 278 278 282 284 280 281 286 292 295 289 274 255 242 225 222 216 213 214 204 206 204 193 200 195 185 175 176 178 181 168 157 162 162 158 156 155 155 151 150 154 155 156 145 147 139 147 139 141
287 284 283 282 281 281 280 278 277 276 276 278 277 273 266 274 283 286 287 279 277 276 276 276 275 275 271 263 256 265 270 273 278 279 280 278 274 272 273 275 275 276 278 281 282 281 276 269 253 241 232 221 216 209 209 206 201 195 196 193 187 183 183 185 183 176 171 171 164 160 162 159 158 161 160 154 148 154 162 153 148 147 148 151 142
285 284 284 282 280 282 281 279 275 274 274 274 274 281 287 281 274 273 272 273 274 274 274 272 271 268 268 273 272 270 272 274 275 277 277 276 276 276 277 278 276 276 278 281 277 266 268 260 252 239 233 225 221 220 211 210 205 200 196 193 189 182 175 168 166 157 162 164 163 162 160 163 163 164 162 160 154 152 151 150 144 155 154 152 146
283 282 282 282 283 283 278 275 274 272 270 271 276 280 280 283 285 277 275 276 275 274 274 274 273 273 272 270 271 272 270 271 273 274 274 273 272 272 273 276 276 274 273 273 269 264 259 255 248 240 228 226 222 219 211 206 205 201 193 193 195 191 181 180 169 166 168 169 167 169 168 167 165 164 159 154 152 153 156 157 161 158 150 144 149
281 281 281 281 280 280 278 275 271 267 270 276 281 280 279 278 279 286 284 277 276 276 276 273 272 273 273 272 270 268 270 272 274 275 275 273 272 271 273 276 275 273 273 268 259 262 256 251 245 239 228 226 222 216 206 205 198 198 191 192 192 193 189 175 159 168 175 177 170 170 169 165 160 156 155 155 156 158 160 161 161 156 150 141 141
280 280 280 283 285 284 282 281 279 276 276 276 276 275 269 266 267 272 281 288 286 277 271 269 271 273 271 270 271 272 271 271 272 272 273 272 270 269 270 272 271 268 262 258 251 250 252 247 241 236 231 225 223 211 205 201 197 197 198 196 185 172 168 162 176 181 182 173 172 166 165 163 163 159 159 158 157 153 158 164 162 158 159 156 149
287 284 284 284 277 278 278 280 281 282 282 279 277 274 274 274 274 275 275 279 282 283 290 284 273 267 271 274 272 272 272 273 274 275 276 277 277 275 274 269 267 263 253 243 245 247 247 244 239 237 230 226 219 210 209 201 197 196 195 189 181 172 168 177 181 180 178 176 172 170 169 165 167 165 161 159 159 163 165 166 170 165 155 151 147
289 288 288 288 286 283 282 283 283 281 279 276 274 273 275 277 277 277 277 276 277 281 281 275 278 283 278 274 273 274 274 275 275 276 275 274 274 274 269 262 261 258 253 245 241 243 242 242 239 237 231 227 220 213 208 203 199 197 192 186 185 180 180 178 179 178 183 179 176 168 163 168 166 161 159 160 166 168 166 167 165 163 157 155 155
286 283 285 286 285 282 281 278 274 274 276 277 277 276 275 274 272 273 272 270 272 272 269 274 280 279 276 270 268 273 275 276 277 278 277 274 270 264 257 258 255 256 253 248 243 241 242 239 235 236 230 227 221 214 207 206 197 193 187 188 185 185 185 185 179 170 171 176 173 171 174 171 167 165 164 166 168 168 168 165 162 159 159 154 145
281 281 280 279 279 278 276 274 275 277 276 274 273 272 272 271 271 271 271 271 270 270 272 272 273 274 279 279 279 278 284 282 281 278 274 272 270 264 254 247 247 246 249 244 243 240 240 240 235 233 230 225 223 213 208 203 195 187 184 186 186 191 177 175 175 174 175 175 175 176 175 173 170 167 165 167 170 168 168 166 158 152 148 151 152
282 283 284 285 283 281 279 280 280 279 276 275 273 274 275 275 274 270 266 265 265 265 268 269 267 268 266 275 285 278 275 275 273 272 270 263 261 257 249 243 241 242 242 243 239 240 238 238 234 229 226 222 219 212 204 201 192 187 180 177 178 174 174 179 180 182 182 184 178 175 175 173 171 171 170 167 169 169 164 161 160 157 155 159 162
286 286 283 284 283 280 279 279 279 278 277 276 274 271 273 274 273 272 271 269 268 270 269 269 269 267 270 273 275 282 279 276 275 276 276 270 261 258 259 254 247 242 241 239 237 235 237 235 232 226 222 217 211 205 198 192 188 181 174 174 175 179 181 180 180 179 183 180 177 176 175 172 169 166 166 169 168 164 161 162 162 159 157 150 144
284 284 285 284 281 282 279 278 276 275 276 275 275 274 269 271 271 272 270 269 270 271 269 267 267 268 272 272 274 274 275 275 275 273 274 278 282 280 274 265 257 250 243 242 241 238 234 233 226 223 219 213 205 197 188 183 176 175 175 175 173 174 175 178 178 178 173 175 178 176 173 166 164 163 166 164 155 154 153 148 144 144 140 139 138
286 284 284 283 284 279 278 277 275 276 275 274 274 272 273 271 271 270 270 269 269 269 270 268 267 269 271 272 275 275 273 270 271 272 270 266 261 257 258 261 263 260 249 241 237 240 236 230 224 217 215 205 195 189 180 178 176 175 177 175 176 171 172 175 176 174 171 171 172 172 169 166 164 161 153 149 150 148 144 146 145 140 139 139 139
284 284 284 285 284 281 280 280 280 279 277 275 274 275 275 275 273 273 272 271 271 271 271 271 271 272 273 275 276 275 269 263 264 263 258 254 253 255 259 260 259 253 248 244 240 238 236 229 221 213 207 201 191 184 182 180 177 175 174 176 175 175 174 171 169 170 169 167 166 165 164 161 155 149 147 146 141 139 140 141 140 140 139 140 141
288 288 286 284 284 283 279 279 280 278 276 276 277 277 276 275 274 273 272 272 271 270 269 270 272 271 271 273 273 269 261 260 256 256 259 261 264 264 267 267 264 259 248 242 238 235 232 226 218 209 200 192 187 184 183 177 174 175 174 176 180 180 178 176 177 173 170 166 162 160 162 160 152 146 146 147 144 141 139 138 139 140 140 140 139
287 288 288 288 285 283 283 280 279 281 282 282 278 276 275 273 273 273 273 273 274 273 271 272 274 274 274 272 267 264 263 263 265 270 275 279 281 280 277 273 269 264 258 249 240 232 226 219 210 197 187 183 180 180 180 177 179 180 179 176 177 181 184 179 173 164 160 158 159 159 159 156 154 150 146 144 144 142 140 143 142 140 138 143 146
289 289 288 289 289 287 287 285 282 280 280 279 278 277 274 271 269 270 270 271 273 273 272 271 271 273 271 268 265 267 268 267 267 263 261 262 263 263 264 266 267 263 254 242 226 217 213 199 181 174 168 161 161 161 163 163 168 171 169 174 172 172 160 151 146 153 161 161 159 158 153 147 144 146 143 141 141 138 136 136 140 147 148 147 145
291 288 290 289 290 289 288 289 288 286 284 283 281 281 280 279 278 275 273 275 275 275 274 271 269 267 265 260 260 255 256 262 271 275 270 266 266 266 267 264 259 249 243 240 222 204 185 175 168 163 159 156 154 153 150 152 152 153 150 149 145 142 145 148 152 155 155 154 152 150 151 146 141 137 136 134 132 133 135 141 146 147 147 145 144
292 292 291 292 292 293 293 293 293 294 293 293 292 291 290 291 289 287 286 283 281 281 279 277 275 279 282 279 274 271 269 266 262 260 262 265 266 267 259 249 238 239 231 295 27 111 133 137 138 137 138 142 142 142 140 136 136 137 137 139 144 145 143 143 146 146 147 145 147 147 145 142 140 138 139 138 137 138 135 139 139 141 140 141 141
295 296 297 297 295 296 297 298 298 298 297 296 294 291 290 289 287 286 283 281 280 278 276 277 275 272 267 277 294 298 296 292 284 278 271 263 252 237 249 250 242 246 193 109 85 90 100 106 112 120 125 130 134 135 133 133 136 137 139 141 143 143 145 145 146 145 143 141 141 139 136 134 134 133 133 132 133 131 130 134 138 139 137 137 140
298 298 298 298 298 298 297 297 296 296 298 298 296 296 295 292 291 290 288 287 286 285 282 279 279 283 285 281 278 277 277 275 272 268 262 264 271 284 288 336 50 80 87 73 64 87 85 84 96 102 104 109 114 118 122 131 134 136 139 142 144 143 143 141 139 140 140 141 140 140 138 134 132 130 131 131 130 129 131 134 136 135 137 138 137
300 300 300 301 302 302 303 304 304 305 305 303 300 299 300 299 296 294 295 292 287 284 284 288 288 287 285 282 278 277 273 274 280 287 288 302 313 332 68 74 73 80 82 79 85 81 79 70 79 89 95 99 103 106 111 118 127 132 134 137 137 137 136 136 138 138 134 130 129 130 131 132 130 130 131 129 127 128 131 132 133 134 136 134 134